TimeEET,TemperatureF,Dew PointF,Humidity,Sea Level PressureIn,VisibilityMPH,Wind Direction,Wind SpeedMPH,Gust SpeedMPH,PrecipitationIn,Events,Conditions,WindDirDegrees,DateUTC
12:00 AM,68.0,59.0,73,30.09,6.2,NNW,8.1,-,N/A,,Scattered Clouds,340,2012-11-12 22:00:00
1:00 AM,66.2,57.2,73,30.09,6.2,North,6.9,-,N/A,,Scattered Clouds,350,2012-11-12 23:00:00
2:00 AM,67,57,61,30.07,6,North,5.8,,,,Partly Cloudy,350,2012-11-13 00:00:00
2:00 AM,68.0,57.2,68,30.06,6.2,North,5.8,-,N/A,,Scattered Clouds,350,2012-11-13 00:00:00
3:00 AM,68.0,57.2,68,30.06,-9999.0,North,8.1,-,N/A,,Clear,360,2012-11-13 01:00:00
4:00 AM,66.2,57.2,73,30.06,-9999.0,North,8.1,-,N/A,,Clear,10,2012-11-13 02:00:00
5:00 AM,68.0,59.0,73,30.04,-9999.0,North,5.8,-,N/A,,Clear,360,2012-11-13 03:00:00
6:00 AM,68.0,59.0,73,30.04,-9999.0,North,8.1,-,N/A,,Clear,10,2012-11-13 04:00:00
7:00 AM,69.8,59.0,68,30.06,6.2,North,4.6,-,N/A,,Scattered Clouds,10,2012-11-13 05:00:00
8:00 AM,72,58,52,30.08,6,NNE,5.8,,,,Partly Cloudy,30,2012-11-13 06:00:00
8:00 AM,71.6,59.0,64,30.06,6.2,NNE,5.8,-,N/A,,Scattered Clouds,30,2012-11-13 06:00:00
9:00 AM,73.4,59.0,61,30.06,6.2,North,6.9,-,N/A,,Scattered Clouds,350,2012-11-13 07:00:00
10:00 AM,-9999,-9999,N/A,30.09,6.2,North,-9999.0,-,N/A,,Scattered Clouds,0,2012-11-13 08:00:00
11:00 AM,73.4,59.0,61,30.06,6.2,NNW,9.2,-,N/A,,Mostly Cloudy,340,2012-11-13 09:00:00
12:00 PM,75.2,57.2,53,30.06,6.2,North,8.1,-,N/A,,Mostly Cloudy,10,2012-11-13 10:00:00
1:00 PM,75.2,57.2,53,30.06,6.2,North,6.9,-,N/A,,Mostly Cloudy,360,2012-11-13 11:00:00
2:00 PM,75,56,42,30.05,6,North,9.2,,,,Scattered Clouds,350,2012-11-13 12:00:00
2:00 PM,75.2,57.2,53,30.04,6.2,North,9.2,-,N/A,,Mostly Cloudy,350,2012-11-13 12:00:00
3:00 PM,75.2,55.4,50,30.04,6.2,NNW,8.1,-,N/A,,Mostly Cloudy,330,2012-11-13 13:00:00
4:00 PM,75.2,57.2,53,30.04,6.2,North,6.9,-,N/A,,Partly Cloudy,350,2012-11-13 14:00:00
5:00 PM,73.4,57.2,57,30.04,6.2,NNW,8.1,-,N/A,,Scattered Clouds,340,2012-11-13 15:00:00
6:00 PM,71.6,57.2,60,30.06,-9999.0,NNW,8.1,-,N/A,,Clear,330,2012-11-13 16:00:00
7:00 PM,69.8,57.2,64,30.06,-9999.0,NNW,8.1,-,N/A,,Clear,340,2012-11-13 17:00:00
8:00 PM,69,58,59,30.07,6,North,4.6,,,,,350,2012-11-13 18:00:00
8:00 PM,69.8,57.2,64,30.06,-9999.0,North,4.6,-,N/A,,Clear,350,2012-11-13 18:00:00
9:00 PM,69.8,57.2,64,30.06,-9999.0,North,5.8,-,N/A,,Clear,350,2012-11-13 19:00:00
10:00 PM,69.8,57.2,64,30.06,-9999.0,North,5.8,-,N/A,,Clear,350,2012-11-13 20:00:00
11:00 PM,68.0,57.2,68,30.06,-9999.0,North,2.3,-,N/A,,Clear,360,2012-11-13 21:00:00